When you browse on this site, cookies collect data to enhance your experience and personalize the content and advertising you see.
Visit our Privacy Policy to learn more. By continuing to use the site, you agree to this use of cookies and data.
  • In Austria
  • List of Countries
  • For 7 days
  • Water Temperature
  • Satellite Maps
  • Weather Map
  • News
  • Weather Widgets
  • user-avatar
    Login

    Hourly Weather Kitzbuhel

    Today, 18 July, Thursday

    Time Temperature Precipitation Wind Pressure Humidity
    00:00 +12°C° 0 mm 1 mps 675 mmHg 94%
    01:00 +12°C° 0 mm 1 mps 675 mmHg 94%
    02:00 +12°C° 0 mm 1 mps 675 mmHg 93%
    03:00 +12°C° 0 mm 1 mps 675 mmHg 93%
    04:00 +12°C° 0 mm 1 mps 675 mmHg 92%
    05:00 +13°C° 0 mm 1 mps 675 mmHg 91%
    06:00 +15°C° 0 mm 1 mps 675 mmHg 89%
    07:00 +16°C° 0 mm 1 mps 676 mmHg 85%
    08:00 +18°C° 0.4 mm 1 mps 676 mmHg 80%
    09:00 +20°C° 0.4 mm 1 mps 676 mmHg 76%
    10:00 +21°C° 0.4 mm 1 mps 677 mmHg 71%
    11:00 +21°C° 0.3 mm 1 mps 677 mmHg 65%
    12:00 +22°C° 0.3 mm 1 mps 677 mmHg 59%
    13:00 +23°C° 0.3 mm 2 mps 677 mmHg 52%
    14:00 +23°C° 0.2 mm 1 mps 677 mmHg 53%
    15:00 +23°C° 0.2 mm 1 mps 677 mmHg 54%
    16:00 +23°C° 0.2 mm 1 mps 678 mmHg 55%
    17:00 +21°C° 0.4 mm 1 mps 677 mmHg 66%
    18:00 +19°C° 0.4 mm 1 mps 677 mmHg 77%
    19:00 +16°C° 0.4 mm 0 mps 677 mmHg 87%
    20:00 +16°C° 0.1 mm 1 mps 677 mmHg 89%
    21:00 +14°C° 0.1 mm 1 mps 677 mmHg 90%
    22:00 +13°C° 0.1 mm 1 mps 677 mmHg 91%
    23:00 +12°C° 0 mm 1 mps 677 mmHg 91%

    Tomorrow, 19 July, Friday

    Time Temperature Precipitation Wind Pressure Humidity
    00:00 +12°C° 0 mm 1 mps 677 mmHg 92%
    01:00 +12°C° 0 mm 1 mps 677 mmHg 92%
    02:00 +12°C° 0 mm 1 mps 677 mmHg 91%
    03:00 +12°C° 0 mm 1 mps 677 mmHg 90%
    04:00 +12°C° 0 mm 1 mps 677 mmHg 89%
    05:00 +13°C° 0 mm 1 mps 678 mmHg 86%
    06:00 +15°C° 0 mm 1 mps 678 mmHg 83%
    07:00 +15°C° 0 mm 0 mps 679 mmHg 81%
    08:00 +18°C° 0 mm 0 mps 679 mmHg 70%
    09:00 +22°C° 0 mm 1 mps 680 mmHg 59%
    10:00 +25°C° 0 mm 1 mps 680 mmHg 48%
    11:00 +25°C° 0 mm 1 mps 680 mmHg 45%
    12:00 +26°C° 0 mm 1 mps 680 mmHg 43%
    13:00 +27°C° 0 mm 1 mps 680 mmHg 41%
    14:00 +26°C° 0.2 mm 1 mps 680 mmHg 47%
    15:00 +25°C° 0.2 mm 2 mps 679 mmHg 53%
    16:00 +24°C° 0.2 mm 2 mps 679 mmHg 59%
    17:00 +23°C° 0.6 mm 1 mps 679 mmHg 70%
    18:00 +21°C° 0.6 mm 1 mps 679 mmHg 81%
    19:00 +17°C° 0.6 mm 0 mps 679 mmHg 91%
    20:00 +18°C° 0.4 mm 1 mps 679 mmHg 92%
    21:00 +16°C° 0.4 mm 1 mps 679 mmHg 92%
    22:00 +15°C° 0.4 mm 1 mps 679 mmHg 93%
    23:00 +14°C° 0 mm 1 mps 679 mmHg 92%

    Day after tomorrow, 20 July, Saturday

    Time Temperature Precipitation Wind Pressure Humidity
    00:00 +14°C° 0 mm 1 mps 679 mmHg 92%
    01:00 +14°C° 0 mm 1 mps 679 mmHg 92%
    02:00 +14°C° 0 mm 1 mps 679 mmHg 92%
    03:00 +14°C° 0 mm 1 mps 679 mmHg 91%
    04:00 +13°C° 0 mm 1 mps 679 mmHg 91%
    05:00 +15°C° 0 mm 1 mps 679 mmHg 89%
    06:00 +16°C° 0 mm 1 mps 679 mmHg 86%
    07:00 +19°C° 0 mm 1 mps 680 mmHg 84%
    08:00 +20°C° 0 mm 0 mps 680 mmHg 72%
    09:00 +23°C° 0 mm 0 mps 681 mmHg 60%
    10:00 +26°C° 0 mm 0 mps 681 mmHg 49%
    11:00 +28°C° 0.1 mm 1 mps 681 mmHg 46%
    12:00 +28°C° 0.1 mm 1 mps 681 mmHg 44%
    13:00 +29°C° 0.1 mm 1 mps 681 mmHg 42%
    14:00 +28°C° 0.4 mm 1 mps 681 mmHg 49%
    15:00 +26°C° 0.4 mm 1 mps 681 mmHg 56%
    16:00 +25°C° 0.4 mm 1 mps 680 mmHg 63%
    17:00 +24°C° 0.8 mm 1 mps 680 mmHg 71%
    18:00 +21°C° 0.8 mm 0 mps 681 mmHg 78%
    19:00 +20°C° 0.8 mm 0 mps 681 mmHg 86%
    20:00 +20°C° 0.2 mm 1 mps 681 mmHg 87%
    21:00 +19°C° 0.2 mm 1 mps 681 mmHg 88%
    22:00 +16°C° 0.2 mm 2 mps 681 mmHg 89%
    23:00 +16°C° 0 mm 2 mps 681 mmHg 88%

    21 July, Sunday

    Time Temperature Precipitation Wind Pressure Humidity
    00:00 +16°C° 0 mm 2 mps 681 mmHg 87%
    01:00 +16°C° 0 mm 2 mps 681 mmHg 86%
    02:00 +16°C° 0 mm 2 mps 681 mmHg 85%
    03:00 +15°C° 0 mm 2 mps 681 mmHg 83%
    04:00 +15°C° 0 mm 2 mps 681 mmHg 82%
    05:00 +18°C° 0 mm 1 mps 681 mmHg 79%
    06:00 +19°C° 0 mm 1 mps 682 mmHg 75%
    07:00 +19°C° 0 mm 0 mps 682 mmHg 72%
    08:00 +23°C° 0.1 mm 1 mps 683 mmHg 67%
    09:00 +24°C° 0.1 mm 1 mps 683 mmHg 62%
    10:00 +26°C° 0.1 mm 1 mps 684 mmHg 57%
    11:00 +27°C° 0.3 mm 2 mps 684 mmHg 55%
    12:00 +27°C° 0.3 mm 2 mps 684 mmHg 53%
    13:00 +28°C° 0.3 mm 2 mps 684 mmHg 51%
    14:00 +27°C° 0.9 mm 2 mps 684 mmHg 59%
    15:00 +26°C° 0.9 mm 2 mps 684 mmHg 68%
    16:00 +25°C° 0.9 mm 1 mps 684 mmHg 77%
    17:00 +24°C° 0.7 mm 1 mps 684 mmHg 82%
    18:00 +23°C° 0.7 mm 1 mps 684 mmHg 86%
    19:00 +20°C° 0.7 mm 0 mps 684 mmHg 91%
    20:00 +18°C° 0 mm 0 mps 684 mmHg 92%
    21:00 +19°C° 0 mm 1 mps 684 mmHg 92%
    22:00 +18°C° 0 mm 1 mps 684 mmHg 93%
    23:00 +16°C° 0 mm 1 mps 684 mmHg 92%

    22 July, Monday

    Time Temperature Precipitation Wind Pressure Humidity
    00:00 +16°C° 0 mm 1 mps 684 mmHg 92%
    01:00 +15°C° 0 mm 1 mps 683 mmHg 91%
    02:00 +15°C° 0 mm 1 mps 683 mmHg 91%
    03:00 +15°C° 0 mm 1 mps 683 mmHg 90%
    04:00 +15°C° 0 mm 1 mps 683 mmHg 89%
    05:00 +16°C° 0 mm 1 mps 684 mmHg 87%
    06:00 +17°C° 0 mm 0 mps 684 mmHg 84%
    07:00 +18°C° 0 mm 0 mps 685 mmHg 81%
    08:00 +21°C° 0 mm 0 mps 685 mmHg 72%
    09:00 +25°C° 0 mm 1 mps 685 mmHg 63%
    10:00 +27°C° 0 mm 1 mps 686 mmHg 54%
    11:00 +28°C° 0.1 mm 1 mps 686 mmHg 51%
    12:00 +28°C° 0.1 mm 2 mps 686 mmHg 48%
    13:00 +29°C° 0.1 mm 2 mps 686 mmHg 46%
    14:00 +29°C° 0.1 mm 2 mps 685 mmHg 50%
    15:00 +28°C° 0.1 mm 2 mps 685 mmHg 54%
    16:00 +28°C° 0.1 mm 2 mps 685 mmHg 58%
    17:00 +26°C° 0.3 mm 2 mps 685 mmHg 69%
    18:00 +24°C° 0.3 mm 1 mps 684 mmHg 79%
    19:00 +23°C° 0.3 mm 1 mps 684 mmHg 90%
    20:00 +22°C° 0 mm 1 mps 684 mmHg 91%
    21:00 +20°C° 0 mm 1 mps 684 mmHg 92%
    22:00 +19°C° 0 mm 1 mps 684 mmHg 93%
    23:00 +18°C° 0 mm 1 mps 684 mmHg 93%

    23 July, Tuesday

    Time Temperature Precipitation Wind Pressure Humidity
    00:00 +18°C° 0 mm 1 mps 683 mmHg 92%
    01:00 +18°C° 0 mm 1 mps 683 mmHg 92%
    02:00 +16°C° 0 mm 1 mps 683 mmHg 92%
    03:00 +16°C° 0 mm 1 mps 683 mmHg 91%
    04:00 +16°C° 0 mm 1 mps 682 mmHg 91%
    05:00 +18°C° 0 mm 1 mps 683 mmHg 88%
    06:00 +20°C° 0 mm 1 mps 683 mmHg 86%
    07:00 +19°C° 0 mm 0 mps 683 mmHg 83%
    08:00 +21°C° 0 mm 0 mps 684 mmHg 73%
    09:00 +26°C° 0 mm 1 mps 684 mmHg 62%
    10:00 +28°C° 0 mm 1 mps 684 mmHg 52%
    11:00 +29°C° 0 mm 1 mps 684 mmHg 48%
    12:00 +30°C° 0 mm 1 mps 684 mmHg 43%
    13:00 +31°C° 0 mm 2 mps 684 mmHg 39%
    14:00 +30°C° 0 mm 2 mps 684 mmHg 41%
    15:00 +30°C° 0 mm 2 mps 683 mmHg 44%
    16:00 +29°C° 0 mm 2 mps 683 mmHg 46%
    17:00 +28°C° 0 mm 2 mps 682 mmHg 58%
    18:00 +26°C° 0 mm 1 mps 682 mmHg 69%
    19:00 +24°C° 0 mm 1 mps 682 mmHg 81%
    20:00 +22°C° 0 mm 1 mps 681 mmHg 84%
    21:00 +21°C° 0 mm 1 mps 681 mmHg 88%
    22:00 +19°C° 0 mm 1 mps 681 mmHg 91%
    23:00 +19°C° 0 mm 1 mps 681 mmHg 90%
    Show more